Location: Devils Tower National Monument
(44.5904°N, 104.7201°W)
Time: 22:04:24
(UTC-07:00)

Envisat - Visible Passes

Search period start: 25 January 2020 00:00
Search period end: 04 February 2020 00:00
Orbit: 764 x 766 km, 98.1° (Epoch: 25 January)

Date Brightness Start Highest point End Pass type
(mag) Time Alt. Az. Time Alt. Az. Time Alt. Az.
25 Jan 5.2 05:55:07 10° NE 05:59:31 29° E 06:03:53 10° SSE visible
25 Jan 5.4 18:51:09 10° SW 18:55:11 23° W 18:59:14 10° NW visible
26 Jan 6.2 05:19:52 10° ENE 05:22:21 13° E 05:24:49 10° ESE visible
26 Jan 4.0 18:13:15 10° S 18:18:10 50° W 18:23:07 10° NNW visible
27 Jan 4.1 06:20:12 10° NNE 06:25:08 49° E 06:30:03 10° S visible
27 Jan 3.0 17:36:18 10° SSE 17:41:21 77° ENE 17:46:27 10° N visible
27 Jan 6.2 19:18:27 10° WSW 19:20:57 14° W 19:23:28 10° WNW visible
28 Jan 5.5 05:44:05 10° NE 05:48:07 23° E 05:52:08 10° SE visible
28 Jan 5.1 18:39:24 10° SSW 18:43:47 29° W 18:48:12 10° NW visible
29 Jan 6.5 05:10:03 10° ENE 05:10:53 10° E 05:11:44 10° E visible
29 Jan 3.1 06:45:34 10° NNE 06:50:40 85° ESE 06:55:46 10° SSW visible
29 Jan 3.6 18:01:49 10° S 18:06:50 63° W 18:11:54 10° NNW visible
30 Jan 4.6 06:09:02 10° NNE 06:13:48 39° E 06:18:32 10° SSE visible
30 Jan 5.9 19:06:13 10° SW 19:09:31 17° W 19:12:51 10° NW visible
31 Jan 5.9 05:33:11 10° NE 05:36:43 19° E 05:40:14 10° SE visible
31 Jan 4.7 18:27:46 10° SSW 18:32:25 36° W 18:37:07 10° NNW visible
01 Feb 3.5 06:34:18 10° NNE 06:39:22 68° ESE 06:44:25 10° S visible
01 Feb 3.2 17:50:28 10° S 17:55:32 79° WSW 18:00:39 10° NNW visible
02 Feb 5.0 05:57:54 10° NNE 06:02:26 31° E 06:06:56 10° SSE visible
02 Feb 5.6 18:54:16 10° SW 18:58:07 22° W 19:02:00 10° NW visible
03 Feb 6.2 05:22:28 10° NE 05:25:18 15° E 05:28:07 10° ESE visible
03 Feb 4.2 18:16:14 10° S 18:21:05 46° W 18:25:58 10° NNW visible
